NOAA 20 (JPSS-1)

Last updated on Sun Oct 26 2025 00:02:30 GMT+0000 (Coordinated Universal Time)

1 43013U 17073A 25298.42541058 .00000170 00000+0 10143-3 0 9993 2 43013 98.7516 235.2700 0000668 155.0473 205.0735 14.19506243411163
UTC large
Height (km)
Speed (km/s)
/
Latitude / Longitude
Inclination (degrees)
Orbital Period (minutes)
Azimuth
Elevation
Range (km)
Doppler Factor

Next 0 passes for location: London (51.5072 / 0.1276)

Sorry there are no passes over London.